Temperature
22 23 23 23 23 23 23 23 22 22 22 22 22 22 22 21 20 20 20 19 19 19 18 17 17 17 17 17 16 16 16 16 16 15 15 15 15 14 14 14 14 14 14 14
23 23 23 22 22 22 22 22 22 22 22 21 21 22 22 21 20 20 20 20 19 19 18 17 17 17 17 17 16 16 16 16 15 15 15 15 15 14 14 14 14 14 14 14
23 22 22 22 22 22 22 22 22 22 21 21 21 22 22 22 20 19 19 19 19 19 18 18 17 17 17 16 16 16 16 16 16 15 15 15 14 14 14 14 14 14 14 14
22 22 22 22 22 22 22 22 22 21 21 22 22 22 22 22 21 21 20 19 19 18 18 17 17 17 16 16 16 16 16 16 15 15 15 14 14 14 14 14 14 14 14 14
22 22 22 22 22 22 22 21 22 21 22 22 22 22 23 22 22 22 21 20 19 18 17 17 17 17 16 16 16 16 16 16 15 15 15 14 14 14 14 14 14 13 13 13
22 21 22 22 21 21 21 21 21 21 22 21 22 22 22 23 22 22 21 20 19 18 17 17 17 16 16 16 16 15 15 15 15 15 15 14 14 14 14 14 13 13 13 13
21 21 21 21 21 21 21 21 21 21 21 21 21 21 22 23 22 22 21 20 19 18 17 17 16 16 16 16 15 15 15 15 15 15 14 14 14 14 13 13 13 13 13 13
21 21 21 21 21 21 21 22 21 20 21 21 21 21 23 22 21 20 19 19 18 18 17 17 16 16 16 15 15 15 15 15 15 14 14 14 14 14 13 13 13 13 13 13
21 21 21 21 21 21 21 21 21 21 21 21 22 22 22 21 21 20 19 19 18 18 17 16 16 16 16 15 15 15 15 14 14 14 14 14 14 14 14 13 13 13 13 13
21 20 21 20 20 20 21 21 20 20 20 20 21 21 22 21 21 21 20 19 18 17 17 16 16 16 15 15 15 15 14 14 14 14 14 14 14 13 13 13 13 13 13 13
21 20 20 20 20 20 20 20 20 20 20 20 20 22 22 21 21 20 20 18 18 17 16 16 15 15 15 15 14 14 14 14 14 14 14 13 13 13 13 13 13 13 13 13
20 20 20 20 20 19 20 20 20 20 20 20 20 21 21 20 20 19 19 18 17 16 16 15 15 15 15 15 14 14 14 14 14 13 13 13 13 13 13 13 13 12 12 12
19 19 19 20 19 19 19 19 20 20 20 20 20 21 21 20 19 18 18 17 17 16 15 15 15 15 14 14 14 14 13 13 13 13 13 13 13 13 12 12 12 12 12 12
18 19 19 19 20 19 18 18 18 19 19 20 20 20 21 20 19 19 17 16 16 15 15 15 14 14 14 14 14 13 13 13 13 13 13 13 12 12 12 12 12 12 12 12
18 19 19 19 19 18 18 18 18 18 19 19 20 19 20 20 19 18 17 16 15 15 14 14 14 14 14 14 13 13 13 13 12 12 12 12 12 12 12 12 12 12 12 12
18 18 18 18 18 18 17 18 18 18 18 19 19 19 20 19 18 17 16 15 15 15 14 14 14 14 14 13 13 13 13 12 12 12 12 12 12 12 12 12 12 11 11 11
18 18 18 18 18 17 17 18 18 18 18 18 18 19 19 18 17 17 16 15 15 14 14 14 14 13 13 13 13 13 12 12 12 12 12 12 12 12 11 11 11 11 11 11
17 17 17 18 18 17 18 19 18 18 18 18 18 18 18 18 17 16 15 15 14 14 13 13 13 13 13 13 13 12 12 12 12 11 11 11 11 11 11 11 11 11 11 10
17 17 17 17 17 18 18 17 17 17 18 18 18 17 17 16 16 16 15 14 14 13 13 13 13 13 13 13 12 12 12 12 11 11 11 11 11 11 11 11 11 10 10 10
15 16 17 16 16 17 18 18 17 17 17 17 17 17 16 15 17 17 15 14 13 13 13 13 13 12 12 12 12 12 12 11 11 11 11 11 10 10 10 10 10 10 10 10
15 15 16 16 16 17 18 16 16 16 17 16 16 16 15 15 16 15 14 13 13 13 13 13 13 12 12 12 12 11 11 11 11 11 10 10 10 10 10 10 10 10 10 9
16 15 16 16 16 16 16 15 16 17 16 15 15 15 14 14 14 13 13 13 13 12 12 12 12 12 12 12 11 11 11 11 10 10 10 10 10 10 9 9 9 9 9 9
15 16 16 16 17 16 15 15 15 15 15 15 14 14 13 13 13 12 12 12 12 12 12 12 12 12 11 11 11 11 11 10 10 10 9 9 9 9 9 9 9 9 8 8
15 14 15 15 16 15 14 14 14 13 14 13 13 13 13 12 12 12 12 11 11 11 11 11 11 11 11 11 11 10 10 10 9 9 9 9 9 9 8 9 9 8 8 8
14 14 14 14 15 14 14 13 13 13 13 13 13 12 12 12 12 12 11 11 11 11 11 11 11 10 10 10 10 10 10 9 9 9 8 8 8 8 8 8 8 8 8 8
13 13 14 14 15 15 14 13 13 13 12 12 12 12 12 12 11 11 11 11 11 10 10 10 10 10 10 10 9 9 9 9 9 8 8 8 8 8 8 8 8 8 8 8
Wind_Speed
3 4 4 4 3 3 4 4 4 3 2 4 5 6 5 5 7 9 8 8 8 7 5 4 4 4 4 4 4 4 4 3 3 3 3 3 3 3 2 2 2 2 2 2
5 5 3 2 3 4 5 5 3 2 1 4 5 7 6 5 7 8 8 8 8 7 6 5 5 5 5 5 4 4 4 4 4 3 3 3 3 2 2 2 2 1 2 2
6 2 3 4 5 5 5 6 4 3 2 4 5 6 5 4 5 6 7 8 8 7 7 6 6 6 6 5 5 5 5 5 4 4 3 3 3 3 2 2 2 1 1 2
4 3 4 5 5 5 5 3 4 5 5 3 5 5 5 5 6 6 7 7 7 7 6 6 6 6 6 6 5 5 5 5 5 5 4 4 3 3 2 2 2 2 2 1
4 3 5 5 3 5 2 2 5 6 6 6 6 6 4 5 6 6 6 6 6 7 7 6 6 6 6 6 5 5 5 5 5 5 5 4 3 2 2 2 2 2 2 1
3 2 3 3 1 3 3 3 4 5 6 7 5 6 4 4 5 5 5 5 5 5 6 5 6 6 6 5 5 5 5 5 5 5 5 5 4 3 3 3 2 2 2 2
5 5 3 3 3 4 5 4 3 5 5 4 2 6 5 1 2 4 4 5 5 5 5 6 6 7 6 6 6 6 6 6 6 6 6 5 4 4 4 3 3 3 2 2
7 6 5 4 5 5 6 7 5 4 4 4 4 6 3 1 2 3 3 3 4 4 5 5 6 6 6 6 6 6 6 6 6 6 6 5 5 4 3 3 3 3 2 2
5 5 2 2 3 5 5 6 5 6 6 6 5 5 4 3 3 3 2 3 4 4 5 5 5 6 7 7 7 7 7 6 6 6 6 5 5 5 4 3 2 2 2 2
5 5 3 3 3 1 4 4 5 5 4 6 6 7 4 3 4 4 4 4 4 4 4 4 5 5 6 6 6 6 7 6 6 6 5 4 5 4 3 3 3 2 2 2
6 6 4 5 6 6 5 6 6 5 6 6 6 3 1 3 3 4 4 4 4 4 4 4 4 4 5 5 5 6 6 6 5 5 5 5 4 4 3 3 2 3 2 3
5 6 8 7 3 3 6 8 9 8 7 7 7 5 2 2 3 4 4 3 3 3 3 4 4 4 4 5 5 5 5 5 5 4 5 5 4 4 3 3 3 3 3 3
4 5 7 6 5 5 5 6 8 9 9 9 10 6 1 2 4 3 3 3 3 3 3 3 4 4 4 4 4 4 4 5 4 4 4 5 4 4 4 3 3 3 2 3
4 7 9 9 6 4 7 7 8 10 10 11 13 12 7 6 6 4 3 3 3 3 4 4 3 3 4 4 4 4 4 4 4 4 4 4 5 4 4 4 3 3 3 3
4 8 10 10 8 6 8 9 11 13 14 13 13 12 11 9 8 6 4 3 3 4 4 4 3 3 4 4 4 4 4 4 4 4 4 4 4 4 4 3 4 3 3 4
4 7 9 11 9 9 11 11 11 13 14 15 15 14 11 9 6 4 3 4 4 4 4 3 3 4 4 4 4 4 4 5 5 5 5 4 4 4 4 4 4 3 3 4
5 7 8 9 8 9 11 11 12 11 11 12 13 12 8 7 6 5 5 5 5 4 4 4 4 4 4 4 4 4 4 4 5 5 5 5 4 5 4 4 4 4 4 3
7 8 6 8 8 10 6 3 8 11 11 11 10 9 8 8 7 5 4 5 4 4 4 4 4 4 4 4 4 4 4 5 5 5 5 4 4 4 4 4 4 4 4 3
8 8 6 6 9 10 7 4 5 8 9 7 9 9 7 4 4 5 4 4 4 4 3 3 4 4 4 4 4 4 4 4 4 4 5 4 4 4 4 5 5 4 4 4
6 8 8 8 9 9 4 1 3 6 8 4 6 7 5 4 6 5 2 3 3 3 3 2 2 3 4 4 4 4 4 4 4 4 4 4 4 5 5 5 4 4 4 4
7 8 11 12 11 8 2 1 3 6 4 2 5 6 6 7 6 4 2 3 3 3 2 3 3 3 4 4 5 5 4 4 3 3 3 4 4 5 5 5 4 4 4 4
8 8 10 10 10 8 3 3 5 5 4 4 5 5 6 7 5 3 2 2 3 3 2 3 3 3 4 4 5 5 4 3 3 3 3 4 4 4 4 4 5 5 5 5
9 8 6 8 7 3 4 5 5 5 6 6 6 6 5 6 5 4 3 3 3 3 3 3 3 3 3 4 5 5 4 3 3 3 3 3 3 3 4 4 5 5 5 4
6 5 7 8 8 7 6 7 7 7 7 7 6 6 5 6 6 5 4 3 3 3 3 3 3 4 4 4 4 4 3 3 4 4 4 3 3 3 4 3 4 4 5 5
7 6 7 10 9 7 7 7 7 7 7 6 6 5 5 6 6 5 4 4 4 3 3 3 3 3 4 4 3 3 3 4 4 4 4 4 3 3 3 3 3 4 4 4
8 8 9 9 8 8 8 7 7 7 7 6 5 5 5 5 6 5 5 4 4 4 4 4 3 3 3 3 3 3 3 4 4 4 4 3 3 3 3 3 3 2 4 3
Wind_Direction
184 196 192 193 217 250 223 224 236 257 240 247 253 260 254 232 224 223 216 212 213 215 213 203 201 192 189 190 189 178 176 168 162 160 165 158 150 137 130 116 108 106 97 93
186 202 203 195 190 210 218 225 241 247 197 251 262 265 257 234 230 228 222 217 219 217 210 200 202 196 196 191 196 188 182 176 171 169 166 157 148 142 131 128 117 109 117 110
206 170 168 193 202 219 230 235 246 261 262 227 257 250 225 215 221 224 225 224 224 221 218 208 204 199 194 194 193 191 185 179 176 170 160 152 144 148 150 150 150 144 137 133
213 192 192 209 222 236 241 240 236 241 246 241 245 263 237 218 216 213 218 218 223 221 222 215 205 199 192 191 190 191 187 183 178 172 172 169 169 167 171 167 160 165 155 151
194 192 209 223 237 239 252 233 230 239 251 254 236 256 239 199 218 215 214 217 222 220 217 213 205 197 189 182 184 190 187 186 183 179 176 188 189 182 176 171 166 174 158 161
218 204 234 238 217 206 173 191 209 224 240 244 234 248 254 209 230 229 223 220 217 213 210 207 197 189 180 174 178 184 188 188 187 185 187 195 194 193 187 190 190 193 182 183
212 205 200 214 202 182 214 237 239 224 224 242 207 247 254 248 247 247 243 228 218 209 205 196 189 187 181 178 178 183 187 189 189 191 192 197 203 204 205 207 209 214 204 198
224 218 202 217 238 234 228 238 250 258 257 270 237 244 250 266 265 237 234 225 208 201 199 194 193 190 183 185 184 185 188 189 188 192 194 196 200 206 210 220 228 228 228 219
237 229 185 227 246 239 226 230 258 272 275 262 239 247 255 224 233 224 223 225 212 201 198 195 194 194 188 189 192 189 189 190 190 194 196 194 197 202 204 209 220 229 230 223
253 248 216 187 190 239 255 218 216 237 257 258 254 252 254 243 249 249 250 245 226 205 198 196 197 198 192 191 194 192 191 193 193 195 197 196 199 200 202 198 203 211 211 204
244 243 225 206 223 232 208 214 225 234 253 265 269 257 310 295 290 268 254 244 227 209 199 189 190 193 191 186 190 194 193 193 190 195 195 194 194 195 193 196 207 204 197 200
231 252 249 239 228 279 246 239 229 240 242 248 268 273 71 320 307 287 268 242 222 207 195 184 178 181 182 183 192 200 197 195 193 194 194 194 189 189 193 199 205 203 201 207
215 241 247 233 208 204 232 237 238 248 254 249 253 258 92 318 311 301 272 233 208 194 189 179 168 173 174 177 189 198 200 196 191 191 195 192 190 193 201 206 205 205 205 211
241 244 249 255 274 250 243 241 237 238 247 252 252 267 275 287 292 296 272 238 212 195 189 184 174 175 172 173 182 193 196 195 187 187 195 200 199 201 208 210 208 210 211 216
236 252 255 265 266 259 257 254 241 239 246 256 266 270 278 286 287 282 252 220 206 199 191 188 190 185 175 174 177 190 193 193 191 193 199 205 206 205 208 209 214 217 221 223
239 253 257 257 251 255 255 258 252 248 250 257 266 268 276 285 287 274 236 211 213 213 207 201 196 192 190 185 184 189 195 196 197 201 208 209 208 204 209 213 212 215 224 232
230 242 253 259 254 258 253 248 244 246 243 253 260 271 279 271 261 254 238 220 222 225 216 211 207 198 196 194 190 194 194 194 202 206 209 208 209 209 209 211 210 214 220 226
234 238 247 262 256 248 254 247 241 247 249 252 265 277 277 272 268 259 243 232 233 231 223 214 212 202 197 193 188 187 189 196 204 208 209 208 211 214 214 212 214 219 222 221
232 231 238 248 256 261 248 237 237 242 251 261 263 269 275 286 273 253 238 239 241 233 232 226 214 208 195 188 189 186 187 194 205 211 213 213 215 216 217 217 216 220 221 222
214 226 236 243 254 259 258 251 246 250 252 270 269 267 265 256 262 263 251 237 239 233 222 217 212 198 192 188 189 193 194 198 209 217 222 222 220 220 223 225 223 220 217 220
207 219 229 240 250 259 274 83 183 235 280 317 281 270 252 249 267 288 257 233 230 227 216 198 194 194 193 193 195 203 205 211 216 218 223 226 224 225 228 227 222 216 214 216
223 222 226 232 242 248 156 163 218 277 312 300 291 282 265 262 277 274 246 222 213 213 204 198 196 197 192 192 199 211 218 220 214 210 216 224 227 227 225 222 221 217 214 219
230 233 238 232 245 286 210 235 266 298 290 294 291 291 276 264 264 259 248 228 213 211 204 204 204 195 195 197 202 216 222 216 212 210 216 226 233 231 227 221 220 221 220 222
233 241 243 249 252 257 255 260 269 277 283 290 289 287 270 261 261 254 245 231 216 212 205 204 202 200 204 208 209 220 221 217 215 218 224 229 235 237 234 231 230 228 222 221
242 224 240 253 261 265 257 261 272 276 280 285 286 280 265 260 256 246 238 226 217 210 207 203 204 209 213 213 218 221 217 216 218 225 231 233 236 244 245 240 246 245 242 239
232 231 239 253 260 266 274 279 276 272 274 276 279 281 269 256 253 246 236 225 215 210 210 208 207 214 225 219 222 229 222 218 221 227 231 234 234 237 241 244 249 274 264 248
Height
1514 1513 1513 1513 1513 1513 1514 1516 1518 1518 1519 1520 1519 1518 1519 1521 1522 1523 1524 1525 1526 1527 1529 1530 1531 1531 1532 1533 1533 1534 1534 1534 1534 1534 1535 1535 1536 1537 1538 1539 1539 1539 1540 1540
1512 1513 1513 1514 1515 1515 1515 1517 1517 1518 1518 1520 1518 1517 1515 1518 1519 1520 1521 1522 1524 1525 1527 1528 1529 1529 1530 1531 1532 1532 1533 1533 1533 1534 1535 1535 1536 1537 1538 1538 1539 1539 1540 1540
1511 1513 1515 1515 1515 1515 1515 1516 1517 1519 1519 1518 1518 1515 1512 1514 1516 1518 1519 1520 1521 1523 1524 1525 1526 1527 1528 1529 1530 1531 1532 1532 1533 1533 1534 1535 1536 1537 1537 1538 1538 1539 1539 1539
1511 1513 1515 1514 1514 1514 1516 1514 1516 1518 1518 1517 1518 1518 1509 1509 1512 1514 1516 1518 1519 1520 1521 1523 1524 1525 1526 1527 1528 1530 1530 1531 1532 1532 1533 1535 1535 1536 1537 1537 1538 1538 1538 1539
1512 1513 1514 1514 1514 1514 1514 1515 1515 1516 1515 1516 1514 1515 1507 1506 1508 1509 1512 1515 1516 1517 1519 1520 1521 1522 1524 1525 1526 1528 1529 1530 1531 1531 1532 1533 1535 1536 1536 1537 1537 1537 1538 1538
1511 1514 1513 1513 1514 1515 1516 1516 1516 1515 1515 1520 1512 1514 1508 1502 1503 1505 1508 1511 1514 1515 1516 1518 1519 1520 1522 1523 1524 1526 1527 1528 1529 1530 1531 1532 1533 1534 1535 1535 1536 1536 1537 1537
1512 1512 1513 1514 1513 1515 1514 1516 1520 1521 1521 1516 1510 1513 1505 1499 1502 1504 1506 1509 1511 1513 1514 1515 1516 1518 1519 1520 1522 1523 1525 1526 1527 1528 1529 1530 1531 1532 1533 1534 1535 1535 1535 1536
1513 1513 1510 1511 1511 1512 1511 1513 1521 1526 1521 1513 1512 1510 1499 1500 1503 1505 1506 1508 1509 1511 1512 1513 1514 1516 1517 1518 1519 1521 1522 1524 1525 1526 1527 1528 1529 1530 1531 1532 1533 1533 1534 1534
1510 1512 1510 1511 1511 1510 1511 1511 1511 1515 1514 1516 1507 1502 1498 1499 1501 1503 1504 1506 1507 1508 1510 1511 1512 1513 1515 1516 1517 1519 1520 1521 1522 1524 1525 1526 1527 1528 1529 1530 1531 1531 1531 1532
1508 1512 1509 1511 1512 1513 1510 1510 1514 1516 1521 1517 1509 1504 1499 1497 1498 1500 1502 1503 1505 1506 1508 1509 1510 1511 1513 1514 1515 1516 1518 1519 1520 1521 1523 1524 1525 1526 1526 1527 1528 1529 1529 1530
1508 1510 1510 1510 1510 1509 1512 1512 1511 1512 1512 1514 1512 1504 1493 1495 1497 1499 1500 1502 1503 1505 1506 1507 1508 1509 1511 1512 1513 1514 1515 1517 1518 1519 1520 1521 1522 1523 1524 1525 1526 1527 1527 1528
1509 1507 1507 1506 1507 1508 1507 1506 1508 1513 1511 1510 1509 1504 1494 1497 1498 1499 1499 1501 1502 1503 1504 1505 1506 1507 1509 1510 1511 1512 1513 1514 1515 1516 1518 1519 1520 1521 1522 1523 1524 1524 1525 1526
1509 1508 1510 1508 1510 1510 1509 1507 1506 1505 1506 1506 1509 1503 1495 1497 1497 1498 1499 1500 1501 1502 1503 1504 1504 1506 1507 1508 1509 1510 1511 1512 1513 1514 1515 1517 1517 1518 1520 1521 1521 1522 1523 1523
1509 1505 1506 1509 1504 1504 1507 1508 1507 1506 1506 1503 1501 1497 1493 1494 1495 1497 1498 1499 1499 1500 1501 1502 1503 1504 1505 1506 1507 1508 1509 1510 1511 1512 1513 1514 1515 1516 1517 1518 1519 1520 1520 1521
1507 1504 1501 1501 1502 1504 1504 1505 1505 1504 1500 1501 1496 1496 1493 1492 1494 1495 1496 1497 1498 1499 1500 1500 1501 1502 1503 1504 1505 1506 1507 1508 1509 1510 1511 1511 1512 1513 1514 1515 1516 1517 1517 1518
1506 1503 1501 1501 1501 1502 1503 1501 1501 1500 1498 1497 1495 1494 1492 1493 1493 1494 1495 1496 1496 1497 1498 1499 1500 1501 1501 1502 1503 1504 1504 1505 1506 1507 1508 1509 1510 1510 1511 1512 1513 1513 1514 1515
1503 1503 1503 1499 1498 1500 1499 1495 1496 1495 1493 1493 1493 1490 1489 1490 1492 1492 1493 1494 1494 1495 1496 1497 1498 1498 1499 1500 1501 1501 1502 1502 1503 1504 1505 1506 1506 1507 1508 1509 1509 1510 1510 1511
1501 1501 1500 1498 1498 1502 1490 1487 1489 1490 1489 1489 1488 1488 1488 1489 1490 1490 1491 1492 1492 1493 1493 1494 1495 1496 1497 1498 1498 1499 1499 1500 1500 1501 1502 1502 1503 1504 1504 1505 1506 1506 1507 1507
1500 1499 1500 1499 1497 1489 1486 1487 1488 1488 1486 1486 1486 1486 1487 1488 1488 1487 1488 1489 1490 1490 1491 1492 1493 1494 1494 1495 1496 1496 1497 1497 1498 1498 1498 1499 1500 1500 1501 1501 1502 1502 1503 1503
1500 1498 1498 1497 1498 1493 1484 1484 1486 1487 1484 1484 1484 1484 1485 1487 1484 1483 1485 1486 1487 1488 1489 1489 1490 1491 1492 1493 1493 1494 1494 1494 1494 1495 1495 1496 1496 1496 1497 1497 1498 1498 1499 1499
1496 1496 1495 1493 1492 1484 1481 1485 1486 1489 1483 1483 1483 1483 1483 1484 1483 1483 1483 1483 1484 1485 1486 1486 1487 1488 1489 1490 1491 1491 1491 1492 1492 1492 1492 1492 1493 1493 1493 1493 1494 1494 1495 1495
1487 1489 1489 1488 1490 1486 1482 1484 1484 1482 1481 1481 1481 1481 1481 1481 1481 1481 1480 1481 1481 1482 1483 1484 1485 1485 1487 1487 1488 1488 1489 1489 1489 1489 1489 1489 1489 1489 1489 1489 1490 1490 1491 1491
1484 1482 1480 1481 1481 1479 1480 1481 1481 1481 1481 1480 1480 1479 1479 1479 1479 1478 1478 1478 1478 1479 1480 1481 1482 1482 1483 1484 1485 1485 1485 1486 1486 1486 1486 1486 1486 1486 1486 1486 1486 1486 1486 1487
1480 1483 1481 1479 1477 1478 1479 1479 1479 1479 1479 1478 1478 1477 1476 1476 1476 1476 1476 1476 1476 1476 1477 1478 1479 1479 1480 1481 1481 1482 1482 1482 1483 1483 1483 1482 1482 1482 1482 1482 1482 1482 1482 1483
1477 1480 1478 1476 1476 1476 1476 1476 1476 1476 1476 1475 1474 1474 1474 1473 1473 1473 1472 1473 1473 1474 1474 1475 1476 1476 1477 1478 1478 1479 1479 1479 1479 1479 1479 1479 1479 1479 1478 1478 1478 1478 1478 1478
1476 1476 1475 1472 1473 1473 1473 1473 1473 1473 1472 1472 1471 1471 1471 1470 1470 1470 1470 1470 1470 1471 1471 1472 1473 1473 1474 1475 1475 1476 1476 1476 1476 1476 1476 1476 1476 1475 1475 1474 1474 1474 1474 1474